Weather History for KVCB - November, 2011

Change the Weather History Date:

Thursday, November 24, 2011

  Actual Average Record
Temperature  
Mean Temperature 50 °F -  
Max Temperature 53 °F 60 °F 75 °F (1959)
Min Temperature 46 °F 39 °F 29 °F (1951)
Degree Days  
Heating Degree Days 16    
Moisture  
Dew Point 49 °F    
Average Humidity 97    
Maximum Humidity 100    
Minimum Humidity 86    
Precipitation  
Precipitation 0.30 in - - ()
Sea Level Pressure  
Sea Level Pressure 30.07 in    
Wind  
Wind Speed 1 mph (West)    
Max Wind Speed 5 mph    
Max Gust Speed -    
Visibility 3 miles    
Events Fog , Rain    
Averages and records for this station are not official NWS values.
T = Trace of Precipitation, MM = Missing Value Source: NWS Daily Summary

Daily Weather History Graph

Daily Weather History Graph

Search for Another Location

Airport or City:

Trip Planner

Search our weather history database for the weather conditions in past years. The results will help you decide how hot, cold, wet, or windy it might be!

Date:

Astronomy

Nov. 24, 2011 Rise Set
Actual Time 6:58 AM PST 4:49 PM PST
Civil Twilight 6:30 AM PST 5:18 PM PST
Nautical Twilight 5:57 AM PST 5:51 PM PST
Astronomical Twilight 5:25 AM PST 6:22 PM PST
Moon 6:22 AM PST (11/24) 4:25 PM PST (11/24)
Length of Visible Light 10h 48m
Length of Day
9h 51m
Waning Crescent, 0% of the Moon is Illuminated
Nov 24
Waning Crescent
Nov 24
New
Dec 2
First Quarter
Dec 10
Full
Dec 17
Last Quarter

Hourly Weather History & Observations

Time (PST) Temp. Dew Point Humidity Pressure Visibility Wind Dir Wind Speed Gust Speed Precip Events Conditions
12:53 AM 50.0 °F 46.0 °F 86% 29.88 in 6.0 mi Calm Calm - N/A   Overcast
1:53 AM 48.9 °F 46.9 °F 93% 29.88 in 5.0 mi Calm Calm - N/A   Overcast
3:53 AM 48.9 °F 46.9 °F 93% 29.90 in 3.0 mi Calm Calm - 0.03 in Rain Light Rain
4:16 AM 48.2 °F 48.2 °F 100% 29.91 in 2.5 mi Calm Calm - 0.02 in Rain Light Rain
4:53 AM 48.9 °F 48.0 °F 97% 29.91 in 2.5 mi Calm Calm - 0.09 in Rain Rain
6:08 AM 48.2 °F 48.2 °F 100% 29.94 in 1.8 mi North 3.5 mph - 0.02 in Rain Rain
6:22 AM 48.2 °F 48.2 °F 100% 29.95 in 1.5 mi North 4.6 mph - 0.04 in Rain Light Rain
6:44 AM 48.2 °F 48.2 °F 100% 29.96 in 1.2 mi Calm Calm - 0.07 in Rain Light Rain
6:53 AM 48.0 °F 48.0 °F 100% 29.97 in 1.2 mi Calm Calm - 0.08 in Rain Rain
7:00 AM 48.2 °F 48.2 °F 100% 29.97 in 1.2 mi Calm Calm - 0.01 in Rain Light Rain
7:11 AM 48.2 °F 48.2 °F 100% 29.97 in 1.0 mi NNE 3.5 mph - 0.03 in Rain Rain
7:34 AM 48.2 °F 48.2 °F 100% 29.98 in 0.5 mi Calm Calm - 0.06 in Fog , Rain Light Rain
7:53 AM 48.0 °F 48.0 °F 100% 29.99 in 0.8 mi Calm Calm - 0.07 in Rain Light Rain
8:53 AM 48.9 °F 48.0 °F 97% 30.02 in 0.8 mi Calm Calm - 0.00 in   Overcast
9:16 AM 48.2 °F 48.2 °F 100% 30.03 in 1.0 mi Calm Calm - N/A   Overcast
9:53 AM 50.0 °F 48.9 °F 96% 30.04 in 1.5 mi Calm Calm - N/A   Overcast
10:06 AM 50.0 °F 48.2 °F 94% 30.05 in 1.0 mi Calm Calm - N/A   Overcast
10:25 AM 50.0 °F 48.2 °F 94% 30.06 in 0.8 mi Calm Calm - 0.01 in   Overcast
11:04 AM 50.0 °F 50.0 °F 100% 30.06 in 1.0 mi Calm Calm - N/A   Overcast
11:18 AM 50.0 °F 50.0 °F 100% 30.07 in 0.8 mi Calm Calm - 0.01 in Rain Light Rain
12:53 PM 51.1 °F 50.0 °F 96% 30.08 in 1.2 mi Calm Calm - 0.02 in   Overcast
1:32 PM 51.8 °F 51.8 °F 100% 30.08 in 2.0 mi Calm Calm - 0.01 in   Overcast
1:47 PM 51.8 °F 51.8 °F 100% 30.08 in 3.0 mi Calm Calm - 0.01 in   Overcast
1:48 PM 52.0 °F 51.1 °F 97% 30.08 in 3.0 mi Calm Calm - 0.01 in   Overcast
2:53 PM 52.0 °F 51.1 °F 97% 30.10 in 4.0 mi Calm Calm - N/A   Overcast
3:53 PM 53.1 °F 51.1 °F 93% 30.11 in 8.0 mi Calm Calm - N/A   Overcast
4:32 PM 53.6 °F 51.8 °F 94% 30.12 in 6.0 mi Calm Calm - N/A   Overcast
4:53 PM 52.0 °F 51.1 °F 97% 30.12 in 7.0 mi South 3.5 mph - N/A   Overcast
5:23 PM 51.8 °F 50.0 °F 94% 30.13 in 10.0 mi Calm Calm - N/A   Overcast
5:53 PM 52.0 °F 51.1 °F 97% 30.14 in 8.0 mi South 3.5 mph - N/A   Overcast
6:08 PM 51.8 °F 51.8 °F 100% 30.15 in 8.0 mi Calm Calm - N/A   Overcast
6:53 PM 52.0 °F 50.0 °F 93% 30.16 in 6.0 mi Calm Calm - N/A   Overcast
7:09 PM 48.2 °F 48.2 °F 100% 30.16 in 1.2 mi Calm Calm - N/A   Overcast
7:17 PM 48.2 °F 46.4 °F 93% 30.16 in 0.2 mi Calm Calm - N/A Fog Fog
7:53 PM 46.9 °F 46.9 °F 100% 30.18 in 1.5 mi Calm Calm - N/A   Overcast
8:01 PM 48.2 °F 48.2 °F 100% 30.18 in 2.5 mi West 3.5 mph - N/A   Overcast
8:13 PM 48.2 °F 48.2 °F 100% 30.18 in 3.0 mi Calm Calm - N/A   Overcast
8:41 PM 50.0 °F 48.2 °F 94% 30.19 in 2.0 mi Calm Calm - N/A   Overcast
8:53 PM 48.9 °F 48.9 °F 100% 30.20 in 1.5 mi Calm Calm - N/A   Overcast
9:03 PM 48.2 °F 48.2 °F 100% 30.20 in 2.5 mi Calm Calm - N/A   Overcast
9:53 PM 50.0 °F 50.0 °F 100% 30.22 in 4.0 mi West 3.5 mph - N/A   Overcast
10:28 PM 50.0 °F 48.2 °F 94% 30.22 in 1.8 mi WSW 3.5 mph - N/A   Overcast
10:41 PM 48.2 °F 48.2 °F 100% 30.22 in 0.5 mi Calm Calm - N/A Fog Fog
10:53 PM 48.9 °F 48.9 °F 100% 30.23 in 0.5 mi Calm Calm - N/A Fog Fog